Location: Arbon
(43.0005°N, 0.7472°E)
Time: 17:11:26
(UTC+00:00)

AQUA - Pass Details

Date: 07 August 2020
Orbit: 700 x 704 km, 98.2° (Epoch: 22 September)

Event Time Altitude Azimuth Distance (km) Brightness Sun altitude
Rises 02:16:50 0° 9° (N) 3,102 8.2 -23.2°
Reaches altitude 10° 02:19:08 10° 5° (N) 2,179 7.2 -22.9°
Maximum altitude 02:23:48 57° 288° (WNW) 824 4.0 -22.4°
Enters shadow 02:24:22 53° 257° (WSW) 860 3.9 -22.4°
